Bowling Green, KY

8:05 AM CDT on June 25, 2017 (GMT -0500)
Bowling Green-Warren County Regional

Weather History for KBWG - April, 2014

Change the Weather History Date:

Wednesday, April 30, 2014

  Actual Average Record
Temperature  
Mean Temperature 59 °F 62 °F  
Max Temperature 68 °F 74 °F 92 °F (1942)
Min Temperature 49 °F 50 °F 33 °F (1908)
Degree Days  
Heating Degree Days 6 5  
Month to date heating degree days 195 251  
Since 1 July heating degree days 4457 3969  
Cooling Degree Days 0 2  
Month to date cooling degree days 14 31  
Year to date cooling degree days 14 36  
Growing Degree Days 9 (Base 50)    
Moisture  
Dew Point 49 °F    
Average Humidity 71    
Maximum Humidity 93    
Minimum Humidity 48    
Precipitation  
Precipitation T in 0.16 in 3.00 in (1911)
Month to date precipitation 6.57 4.34  
Year to date precipitation 17.47 16.32  
Snow  
Snow 0.00 in 0.00 in 1.00 in (1908)
Month to date snowfall T 0.2  
Since 1 July snowfall 10.4 9.1  
Snow Depth 0.00 in    
Sea Level Pressure  
Sea Level Pressure 29.85 in    
Wind  
Wind Speed 8 mph (West)    
Max Wind Speed 22 mph    
Max Gust Speed 27 mph    
Visibility 10 miles    
Events      
T = Trace of Precipitation, MM = Missing Value Source: NWS Daily Summary

Daily Weather History Graph

Daily Weather History Graph

Search for Another Location

Airport or City:

Trip Planner

Search our weather history database for the weather conditions in past years. The results will help you decide how hot, cold, wet, or windy it might be!

Date:

Astronomy

Apr. 30, 2014 Rise Set
Actual Time 5:52 AM CDT 7:33 PM CDT
Civil Twilight 5:24 AM CDT 8:01 PM CDT
Nautical Twilight 4:51 AM CDT 8:35 PM CDT
Astronomical Twilight 4:15 AM CDT 9:10 PM CDT
Moon 6:54 AM CDT (4/30) 9:10 PM CDT (4/30)
Length of Visible Light 14h 36m
Length of Day
13h 41m
New Moon, 2% of the Moon is Illuminated
Apr 30
New Moon
May 6
First Quarter
May 14
Full
May 21
Last Quarter
May 28
New

Hourly Weather History & Observations

Time (CDT) Temp. Dew Point Humidity Pressure Visibility Wind Dir Wind Speed Gust Speed Precip Events Conditions
12:53 AM 55.9 °F 53.1 °F 90% 29.80 in 10.0 mi South 3.5 mph - N/A   Overcast
1:53 AM 55.9 °F 53.1 °F 90% 29.77 in 10.0 mi SE 5.8 mph - N/A   Overcast
2:53 AM 55.9 °F 53.1 °F 90% 29.78 in 10.0 mi Calm Calm - N/A   Overcast
3:53 AM 55.9 °F 53.1 °F 90% 29.77 in 10.0 mi Calm Calm - N/A   Overcast
4:53 AM 55.9 °F 53.1 °F 90% 29.78 in 10.0 mi Calm Calm - N/A   Overcast
5:53 AM 55.9 °F 53.1 °F 90% 29.79 in 10.0 mi Calm Calm - 0.00 in   Overcast
6:26 AM 55.9 °F 53.1 °F 90% 29.80 in 10.0 mi WNW 3.5 mph - N/A   Overcast
6:53 AM 55.9 °F 53.1 °F 90% 29.81 in 10.0 mi Calm Calm - N/A   Overcast
7:06 AM 55.9 °F 53.1 °F 90% 29.80 in 10.0 mi Calm Calm - N/A   Overcast
7:53 AM 57.0 °F 54.0 °F 89% 29.81 in 6.0 mi WSW 3.5 mph - N/A   Overcast
8:22 AM 57.9 °F 53.1 °F 84% 29.82 in 7.0 mi West 4.6 mph - N/A   Overcast
8:53 AM 57.9 °F 53.1 °F 84% 29.83 in 10.0 mi WSW 6.9 mph - N/A   Overcast
10:26 AM 61.0 °F 53.1 °F 75% 29.83 in 10.0 mi Variable 5.8 mph - N/A   Scattered Clouds
10:53 AM 63.0 °F 53.1 °F 70% 29.82 in 10.0 mi Variable 4.6 mph - N/A   Partly Cloudy
11:53 AM 66.0 °F 52.0 °F 60% 29.82 in 10.0 mi WSW 12.7 mph - N/A   Partly Cloudy
12:53 PM 68.0 °F 51.1 °F 55% 29.82 in 10.0 mi West 11.5 mph - N/A   Scattered Clouds
1:53 PM 66.0 °F 46.9 °F 50% 29.83 in 10.0 mi WSW 13.8 mph 23.0 mph N/A   Scattered Clouds
2:53 PM 64.9 °F 46.0 °F 50% 29.84 in 10.0 mi WSW 10.4 mph 21.9 mph N/A   Mostly Cloudy
3:53 PM 64.0 °F 45.0 °F 50% 29.84 in 10.0 mi West 12.7 mph - N/A   Mostly Cloudy
4:53 PM 64.0 °F 46.9 °F 54% 29.86 in 10.0 mi West 17.3 mph 21.9 mph N/A   Scattered Clouds
5:53 PM 60.1 °F 44.1 °F 55% 29.89 in 10.0 mi West 18.4 mph 25.3 mph N/A   Clear
6:53 PM 57.9 °F 42.1 °F 56% 29.92 in 10.0 mi West 17.3 mph 24.2 mph N/A   Overcast
7:53 PM 57.0 °F 42.1 °F 57% 29.93 in 10.0 mi West 13.8 mph - N/A   Overcast
8:53 PM 55.0 °F 44.1 °F 67% 29.97 in 10.0 mi West 11.5 mph - N/A   Overcast
9:53 PM 53.1 °F 44.1 °F 71% 29.98 in 10.0 mi West 8.1 mph - N/A   Overcast
10:53 PM 52.0 °F 44.1 °F 74% 29.99 in 10.0 mi WSW 8.1 mph - N/A   Overcast
11:45 PM 50.0 °F 45.0 °F 83% 29.98 in 10.0 mi WNW 6.9 mph - N/A   Overcast
11:53 PM 50.0 °F 46.0 °F 86% 29.98 in 10.0 mi NW 4.6 mph - N/A   Overcast